Probability
0 0 0 0 0 0 0 0 0 0 0 0 0 0 0 0 0 0 0 0 0 0 0 0 0 0 0 0 0 0 0 0 0 0 0 0 0 0 0 0 0 0 0 0
0 0 0 0 0 0 0 0 0 0 0 0 0 0 0 0 0 0 0 0 0 0 0 0 0 0 0 0 0 0 0 0 0 0 0 0 0 0 0 0 0 0 0 0
0 0 0 0 0 0 0 0 0 0 0 0 0 0 0 0 0 0 0 0 0 0 0 0 0 0 0 0 0 0 0 0 0 0 0 0 0 0 0 0 0 0 0 0
0 0 0 0 0 0 0 0 0 0 0 0 0 0 0 0 0 0 0 0 0 0 0 0 0 0 0 0 0 0 0 0 0 0 0 0 0 0 0 0 0 0 0 0
0 0 0 0 0 0 0 0 0 0 0 0 0 0 0 0 0 0 0 0 0 0 0 0 0 0 0 0 0 0 0 0 0 0 0 0 0 0 0 0 0 0 0 0
0 0 0 0 0 0 0 0 0 0 0 0 0 0 0 0 0 0 0 0 0 0 0 0 0 0 0 0 0 0 0 0 0 0 0 0 0 0 0 0 0 0 0 0
0 0 0 0 0 0 0 0 0 0 0 0 0 0 0 0 0 0 0 0 0 0 0 0 0 0 0 0 0 0 0 0 0 0 0 0 0 0 0 0 0 0 0 0
0 0 0 0 0 0 0 0 0 0 0 0 0 0 0 0 0 0 0 0 0 0 0 0 0 0 0 0 0 0 0 0 0 0 0 0 0 0 0 0 0 0 0 0
0 0 0 0 0 0 0 0 0 0 0 0 0 0 0 0 0 0 0 0 0 0 0 0 0 0 0 0 0 0 0 0 0 0 0 0 0 0 0 0 0 0 0 0
0 0 0 0 0 0 0 0 0 0 0 0 0 0 0 0 0 0 0 0 0 0 0 0 0 0 0 0 0 0 0 0 0 0 0 0 0 0 0 0 0 0 0 0
0 0 0 0 0 0 0 0 0 0 0 0 0 0 0 0 0 0 0 0 0 0 0 0 0 0 0 0 0 0 0 0 0 0 0 0 0 0 0 0 0 0 0 0
0 0 0 0 0 0 0 0 0 0 0 0 0 0 0 0 0 0 0 0 0 0 0 0 0 0 0 0 0 0 0 0 0 0 0 0 0 0 0 0 0 0 0 0
0 0 0 0 0 0 0 0 0 0 0 0 0 0 0 0 0 0 0 0 0 0 0 0 0 0 0 0 0 0 0 0 0 0 0 0 0 0 0 0 0 0 0 0
0 0 0 0 0 0 0 0 0 0 0 0 0 0 0 0 0 0 0 0 0 0 0 0 0 0 0 0 0 0 0 0 0 0 0 0 0 0 0 0 0 0 0 0
0 0 0 0 0 0 0 0 0 0 0 0 0 0 0 0 0 0 0 0 0 0 0 0 0 0 0 0 0 0 0 0 0 0 0 0 0 0 0 0 0 0 0 0
0 0 0 0 0 0 0 0 0 0 0 0 0 0 0 0 0 0 0 0 0 0 0 0 0 0 0 0 0 0 0 0 0 0 0 0 0 0 0 0 0 0 0 0
0 0 0 0 0 0 0 0 0 0 0 0 0 0 0 0 0 0 0 0 0 0 0 0 0 0 0 0 0 0 0 0 0 0 0 0 0 0 0 0 0 0 0 0
0 0 0 0 0 0 0 0 0 0 0 0 0 0 0 0 0 0 0 0 0 0 0 0 0 0 0 0 0 0 0 0 0 0 0 0 0 0 0 0 0 0 0 0
0 0 0 0 0 0 0 0 0 0 0 0 0 0 0 0 0 0 0 0 0 0 0 0 0 0 0 0 0 0 0 0 0 0 0 0 0 0 0 0 0 0 0 0
0 0 0 0 0 0 0 0 0 0 0 0 0 0 0 0 0 0 0 0 0 0 0 0 0 0 0 0 0 0 0 0 0 0 0 0 0 0 0 0 0 0 0 0
0 0 0 0 0 0 0 0 0 0 0 0 0 0 0 0 0 0 0 0 0 0 0 0 0 0 0 0 0 0 0 0 0 0 0 0 0 0 0 0 0 0 0 0
0 0 0 0 0 0 0 0 0 0 0 0 0 0 0 0 0 0 0 0 0 0 0 0 0 0 0 0 0 0 0 0 0 0 0 0 0 0 0 0 0 0 0 0
0 0 0 0 0 0 0 0 0 0 0 0 0 0 0 0 0 0 0 0 0 0 0 0 0 0 0 0 0 0 0 0 0 0 0 0 0 0 0 0 0 0 0 0
0 0 0 0 0 0 0 0 0 0 0 0 0 0 0 0 0 0 0 0 0 0 0 0 0 0 0 0 0 0 0 0 0 0 0 0 0 0 0 0 0 0 0 0
0 0 0 0 0 0 0 0 0 0 0 0 0 0 0 0 0 0 0 0 0 0 0 0 0 0 0 0 0 0 0 0 0 0 0 0 0 0 0 0 0 0 0 0
0 0 0 0 0 0 0 0 0 0 0 0 0 0 0 0 0 0 0 0 0 0 0 0 0 0 0 0 0 0 0 0 0 0 0 0 0 0 0 0 0 0 0 0
0 0 0 0 0 0 0 0 0 0 0 0 0 0 0 0 0 0 0 0 0 0 0 0 0 0 0 0 0 0 0 0 0 0 0 0 0 0 0 0 0 0 0 0
Wind_Speed
4 5 3 2 2 3 5 7 7 7 8 8 8 7 5 5 5 5 4 3 2 2 2 3 3 3 3 3 4 4 4 5 6 7 6 6 6 7 7 7 8 7 7 7
5 6 5 3 1 3 4 5 7 8 5 6 4 4 4 5 6 5 3 3 2 2 2 3 3 3 3 4 5 4 5 6 6 6 6 6 7 7 7 7 7 7 7 7
3 7 5 3 2 4 4 4 9 7 6 5 5 6 7 6 5 5 4 3 2 2 3 3 3 3 3 4 5 5 5 6 6 6 7 7 8 7 7 7 7 7 7 7
1 5 2 6 1 8 8 4 5 6 6 7 7 6 5 6 6 5 4 3 2 2 2 3 3 3 3 4 5 5 5 6 6 7 7 7 7 8 8 7 7 7 8 8
3 1 4 3 1 5 7 2 2 7 6 5 6 4 0 3 5 6 4 3 3 3 3 2 3 3 3 4 5 5 6 6 7 7 8 8 9 9 8 7 7 7 7 7
3 2 4 7 4 5 9 1 3 7 7 7 6 2 4 5 5 4 3 2 2 2 1 2 3 3 3 5 5 6 7 7 7 7 8 9 9 9 7 7 8 7 7 7
4 4 6 7 4 4 3 8 7 8 8 7 7 7 6 6 5 4 3 2 2 1 1 3 4 3 4 5 6 7 7 7 8 8 8 9 8 7 7 7 7 7 7 7
4 3 7 6 4 6 9 6 7 8 8 7 7 6 6 7 5 4 2 1 1 1 3 4 3 3 4 6 6 6 7 8 8 8 8 8 8 8 7 7 7 7 6 7
8 9 9 6 8 8 8 8 8 8 8 9 8 7 7 6 5 3 2 2 2 2 3 4 4 3 5 6 6 6 7 8 9 9 8 8 7 8 7 6 5 5 5 5
2 6 5 4 4 6 7 8 8 8 9 9 8 8 7 6 4 4 3 2 2 1 2 4 4 4 5 6 5 6 7 8 8 8 9 8 6 5 5 5 5 5 5 5
3 5 1 1 5 7 6 6 7 7 8 9 10 8 7 6 6 4 3 2 2 2 3 4 4 5 5 5 5 6 7 8 8 7 8 8 7 6 6 5 5 5 5 4
6 7 6 7 7 8 8 8 9 9 7 7 9 9 8 6 5 4 3 3 2 2 3 4 4 4 5 4 5 6 7 7 7 7 7 7 7 7 8 7 8 8 8 6
7 6 6 5 6 7 9 9 10 10 10 8 7 8 8 6 5 4 3 3 3 3 3 3 3 4 5 5 5 6 7 7 7 7 7 7 6 6 7 7 6 6 6 6
4 3 3 4 6 7 7 9 9 7 7 8 7 7 6 5 4 4 4 4 4 3 3 3 3 4 5 5 6 6 7 8 8 6 6 6 6 6 5 5 5 5 4 5
3 5 6 5 4 5 5 6 7 7 7 6 7 7 7 6 5 5 4 4 2 1 2 3 3 5 5 5 6 7 6 6 6 6 6 5 5 5 4 4 4 4 4 4
1 2 2 2 3 4 5 6 8 8 8 7 7 7 7 7 6 5 5 4 2 3 3 3 4 5 5 5 6 5 6 11 10 6 5 5 5 5 4 4 4 4 4 3
7 5 3 2 0 2 4 7 9 9 9 9 9 8 7 7 5 5 4 4 4 4 3 3 3 4 5 5 5 5 5 8 12 7 5 5 5 5 5 4 4 4 4 4
8 6 5 3 1 0 1 3 4 7 9 9 9 8 7 7 7 6 6 5 3 2 3 3 3 4 4 4 4 4 5 5 6 6 5 5 5 5 5 4 4 4 4 4
14 14 13 11 8 4 2 1 3 5 6 8 9 8 8 8 7 7 6 5 4 4 4 4 4 2 3 5 6 4 5 6 6 5 5 6 5 5 4 4 4 4 4 4
14 13 13 12 11 8 5 3 1 3 4 5 6 6 7 7 7 7 6 5 5 5 4 3 2 1 3 4 7 4 5 5 5 5 5 5 5 5 5 4 4 4 3 3
12 12 11 11 10 9 6 4 1 3 4 5 6 8 8 7 6 6 5 4 5 4 3 2 1 1 2 4 6 4 4 5 5 5 5 5 5 5 5 4 4 4 4 4
8 9 10 9 8 8 7 6 5 4 5 5 6 6 6 6 6 5 5 5 5 6 4 2 2 2 3 4 3 3 4 4 4 4 5 5 5 5 5 5 5 4 4 3
6 6 7 8 8 8 8 7 6 6 6 6 6 6 7 7 5 5 4 4 5 7 4 3 3 2 3 2 2 3 4 4 4 5 5 5 5 5 4 5 5 4 4 4
7 7 8 8 7 7 8 9 8 6 6 7 7 7 5 4 3 4 3 7 9 8 4 4 4 2 1 1 2 2 3 3 4 5 5 5 5 5 5 5 5 5 4 4
8 7 7 8 7 6 7 7 7 7 7 5 5 5 3 4 4 4 4 6 9 8 4 4 5 2 0 1 1 2 3 3 4 4 5 5 6 6 5 5 5 5 4 4
8 7 6 6 5 5 4 4 3 4 4 4 4 3 2 1 2 4 4 6 7 7 4 3 3 2 1 1 1 2 3 4 4 4 5 5 6 6 6 6 7 5 4 4
7 6 4 4 4 4 3 3 3 4 3 3 3 3 2 1 2 3 4 4 4 4 4 3 3 2 2 2 2 2 3 3 4 4 5 5 5 5 6 6 5 5 5 5
Wind_Direction
245 267 274 252 218 153 142 162 159 179 171 196 190 183 182 163 136 126 139 149 161 207 254 273 281 288 290 290 294 296 298 296 289 288 288 287 287 285 283 280 281 272 267 264
323 314 324 305 271 143 127 127 131 137 175 204 181 146 139 142 140 145 159 170 196 243 273 278 274 276 284 286 289 290 295 293 293 296 295 292 288 286 285 282 279 275 268 263
290 312 360 320 232 134 116 137 147 165 189 170 158 165 170 168 158 159 169 191 234 262 263 261 256 257 267 279 289 299 297 296 298 297 294 290 293 295 286 282 276 274 270 264
239 12 327 263 263 117 102 70 120 133 155 166 170 174 181 173 161 167 182 208 244 254 256 255 257 264 274 289 300 302 300 298 299 299 296 294 292 289 284 277 274 271 270 265
127 203 280 288 248 138 119 68 135 137 149 147 132 102 291 197 173 181 191 199 213 221 225 255 273 276 293 303 304 304 300 297 297 297 297 299 298 293 287 283 280 274 269 264
152 176 238 243 234 136 99 100 213 148 151 152 133 123 244 210 184 179 178 188 203 227 246 290 280 283 302 301 303 298 294 293 295 295 296 298 294 291 287 283 280 282 278 268
185 210 253 235 203 120 135 222 201 165 163 161 171 195 203 183 181 175 174 187 183 187 274 275 278 292 301 300 294 287 291 297 299 298 297 293 291 289 290 289 289 287 285 281
161 181 249 232 158 173 204 188 170 168 170 164 172 170 164 169 171 170 175 201 189 235 283 283 288 298 299 294 287 293 298 301 302 302 302 307 300 298 295 293 294 294 293 294
182 209 227 207 190 194 161 164 176 171 174 157 156 166 169 171 174 183 190 214 216 241 289 295 294 290 289 288 295 303 306 305 304 305 303 300 297 299 301 297 291 294 295 296
235 260 237 208 176 166 166 169 173 167 166 159 161 168 166 169 182 194 211 217 217 258 297 294 293 296 283 289 300 306 307 307 307 307 306 305 300 294 294 293 292 292 293 295
299 283 342 199 191 177 168 153 153 159 164 164 158 163 167 175 187 195 206 212 206 233 269 280 290 297 296 300 308 309 308 307 308 303 301 304 302 292 288 274 260 267 275 277
236 235 193 217 210 173 161 167 165 160 166 168 162 165 165 175 185 188 195 196 215 251 269 276 287 295 297 300 305 308 311 312 307 305 305 304 306 307 298 284 282 266 258 259
217 219 195 196 178 168 170 177 176 170 167 167 167 162 161 170 180 180 182 191 214 241 260 271 286 293 294 300 305 302 301 304 304 303 304 306 307 308 310 314 305 285 276 271
210 154 149 174 185 184 177 179 172 164 162 160 158 155 152 155 163 173 190 203 209 229 264 272 284 292 294 303 306 303 303 305 308 300 301 303 303 302 299 302 311 309 295 280
213 179 185 195 185 183 165 152 148 156 157 156 153 151 149 154 173 189 195 195 196 257 283 281 289 292 297 305 307 306 307 305 305 301 302 301 303 303 301 299 298 297 302 304
289 42 90 125 168 178 161 158 161 171 166 162 156 157 161 164 173 180 185 182 191 258 267 265 278 286 297 306 310 309 308 313 317 308 307 309 309 309 308 303 301 299 294 287
54 31 20 31 81 179 181 177 177 174 165 160 164 164 163 160 163 177 197 208 211 227 221 230 263 286 299 305 307 307 307 311 318 316 307 306 307 306 303 299 294 295 288 274
46 40 43 52 54 43 190 180 168 160 164 168 160 162 168 173 183 193 203 211 216 219 218 237 260 291 305 308 307 303 302 302 306 306 305 305 304 302 302 302 303 302 297 297
37 32 28 27 22 23 39 112 160 163 160 159 166 176 185 189 190 191 192 196 211 230 241 251 280 299 306 311 326 304 304 306 311 311 310 313 316 313 312 310 308 304 303 306
28 25 24 20 17 19 17 13 86 146 169 175 180 187 193 198 193 190 189 201 210 206 214 238 252 272 304 310 326 305 304 306 312 316 319 323 318 314 316 317 316 314 313 311
17 14 14 12 6 2 357 348 308 231 221 199 195 204 207 207 196 186 184 212 221 198 207 222 193 250 297 310 316 305 306 310 315 318 320 322 321 319 319 323 324 322 320 314
3 0 356 352 345 334 326 318 299 273 251 238 227 216 210 211 205 199 203 204 192 186 183 180 195 249 312 322 311 312 317 322 324 325 325 324 323 323 322 323 323 323 323 317
340 336 331 323 315 307 308 307 299 288 270 254 241 229 220 213 195 184 214 209 173 179 172 181 199 250 329 332 318 323 330 335 335 333 329 327 324 323 320 322 326 329 330 337
322 316 310 308 313 317 311 306 302 293 282 273 258 242 224 211 216 210 184 171 174 171 172 184 185 202 327 322 326 334 337 337 335 333 335 334 331 331 333 332 331 333 339 348
309 306 308 313 314 305 297 302 312 312 306 298 287 266 234 202 193 189 170 174 175 167 169 179 175 161 101 347 352 354 347 344 343 338 340 341 339 338 340 342 342 346 356 360
301 298 296 293 290 292 298 305 312 316 320 319 316 307 289 233 173 160 164 172 171 165 159 151 150 136 110 71 29 10 356 347 347 349 346 343 341 343 345 350 355 360 4 8
299 302 305 311 314 318 325 325 319 314 314 310 306 302 297 232 159 149 154 154 155 153 145 135 127 117 103 74 43 18 4 357 353 351 349 349 346 343 345 352 1 5 9 15